الصفحة الرئيسية
METAR-TAF:

METAR-TAF

مطار :

Providencia Island, كولومبيا

دائرة عرض: 13-22N, خط طول: 081-21W, ارتفاع: 6 متر

مراقبة الطقس الحالي

تاريخ ووقت الإصدار 58 دقيقة قبل الساعة 20:00UTC
ريح 10 عقدة من الشرق, الاتجاه يتراوح بين الشرق/الشمال الشرقي و الجنوب/الجنوب الشرقي
درجة الحرارة 32°درجة مئوية
الرطوبة 79%
ضغط 1010 hPa
الرؤية 10 كم أو أكثر
غيوم قليلة على ارتفاع 1700 قدم

METAR: SKPV 162000Z 09010KT 070V150 9999 FEW017 32/28 Q1010

زمن: 15:58 (20:58 UTC)


TAF: مفقودة

أرصاد الطقس والتوقعات من أكثر من 4000 مطار (تقارير الطقس للمطار METAR والتنبؤ بالطقس بالمطارTAF).

المحطات المتاحة هي النقط الصفراء والحمراء على الخريطة.

حرك المؤشر فوق النقطة لمعرفة اسم المحطة.

ثم انقر لمعرفة أرصاد وتوقعات الطقس.

لتغيير الخارطة: اضغط على الأزرار الخضراء مع رمز الصليب الأسود للتكبير. على الزر الأخضر مع شرطة للتصغير، أو على الأسهم الخضراء للخرائط المجاورة.


METAR-TAF: